Zurück zum Katalog

STARLINK-2752

AktivKommunikationVLEO
NORAD 48692·PAYLOAD·🇺🇸 United States

Gestartet May 26, 2021 von Cape Canaveral Space Force Station

Loading…

Nächste Überflüge (nächste 24 Stunden)

TLE

AktuellSource: CelesTrak SupGP

Epoche: Sep 14, 2026, 21:26 UTC

1 48692C 21044BG  26257.89354167  .00047587  00000+0  15299-2 0  2570
2 48692  53.1563 274.5892 0001323  96.3657 327.1924 15.31685444    16

Verfolge STARLINK-2752 in Echtzeit mit AllMySat

Download on the App Store